Regional Weather Roundup
Issued by NWS Bismarck, ND

Home | Current Version | Previous Version | Text Only | Print | Product List | Glossary On
Versions: 1 2 3 4 5 6 7 8 9 10 11 12 13 14 15 16 17 18 19 20 21 22 23 24 25 26 27 28 29 30 31 32 33 34 35 36 37 38 39 40 41 42 43 44 45 46 47 48 49 50
000
ASUS43 KBIS 291010
RWRBIS

NWR BROADCAST TEXT
NATIONAL WEATHER SERVICE BISMARCK ND
500 AM CDT SAT APR 29 2017

NOTE: "FAIR" INDICATES FEW OR NO CLOUDS BELOW 12,000 FEET WITH NO
SIGNIFICANT WEATHER AND/OR OBSTRUCTIONS TO VISIBILITY.


CITY           SKY/WX    TMP DP  RH WIND       PRES   REMARKS
WILLISTON      FAIR      36  26  67 S3        30.17S
MINOT          FAIR      37  25  61 SW8       30.19R
MINOT AFB      FAIR      39  23  53 SW7       30.18R
BISMARCK       FAIR      30  22  72 CALM      30.24R
DICKINSON      FAIR      29  19  66 S5        30.18S
GARRISON         N/A     29  24  82 CALM      30.20S
HETTINGER ARPT FAIR      28  22  78 NW3       30.23R
JAMESTOWN      FAIR      30  27  88 CALM      30.23R
HAZEN          FAIR      21  16  79 S6        30.24R WCI  14
LINTON           N/A     23  21  93 SE5       30.26R WCI  17
MANDAN         FAIR      32  18  55 S5        30.23R
STANLEY        FAIR      37  19  48 CALM      30.20S
TIOGA          FAIR      34  19  55 CALM      30.19R
WATFORD CITY   FAIR      34  23  64 CALM      30.17S
$$

CITY           SKY/WX    TMP DP  RH WIND       PRES   REMARKS
GRAND FORKS    FAIR      31  25  78 CALM      30.25R
GRAND FORKS AF FAIR      28  25  88 NW3       30.25R
DEVILS LAKE    FAIR      29  27  92 CALM      30.24S
FARGO          FAIR      26  23  88 CALM      30.24S
CAVALIER       FAIR      27  23  86 CALM      30.25R
GRAFTON        FAIR      32  27  80 W3        30.27R
GWINNER        SUNNY     36  23  60 MISG      30.23S
LANGDON        FAIR      23  21  93 CALM      30.24R
ROLLA          FAIR      30  19  64 S6        30.23R
$$

CITY           SKY/WX    TMP DP  RH WIND       PRES   REMARKS
ABERDEEN       FAIR      27  21  78 CALM      30.24R
MOBRIDGE       FAIR      25  16  68 N3        30.20S
BUFFALO          N/A     34  26  72 SE7       30.16R
RAPID CITY     FAIR      27  21  78 NW8       30.21R WCI  19
GLASGOW        FAIR      38  33  82 CALM      30.19R
SIDNEY         FAIR      33  23  66 S5        30.19S
WOLF POINT     MOCLDY    33  30  88 W3        30.20R
GLENDIVE       FAIR      35  26  69 SW3       30.19S
MILES CITY     FAIR      34  28  79 NW6       30.18S
BAKER          FAIR      34  26  72 CALM      30.19S
$$

CITY           SKY/WX    TMP DP  RH WIND       PRES   REMARKS
BILLINGS       FAIR      34  32  92 NW7       30.19S
GREAT FALLS    FAIR      34  29  82 CALM      30.16F
REGINA         PTCLDY    32  32 100 S9        30.15F
ESTEVAN        PTCLDY    32  30  93 NW6       30.18R
$$




USA.gov is the U.S. government's official web portal to all federal, state and local government web resources and services.